Location: Bukit Lungun
(2.6833°N, 113.9667°E)
Time: 11:40:03
(UTC+00:00)

Cosmos 968 Rocket - Pass Details

Date: 02 March 2021
Orbit: 740 x 771 km, 74.0° (Epoch: 20 April)

Event Time Altitude Azimuth Distance (km) Brightness Sun altitude
Rises 12:01:28 0° 353° (N) 3,228 6.8 -21.5°
Reaches altitude 10° 12:03:52 10° 356° (N) 2,303 5.9 -22.1°
Maximum altitude 12:09:03 67° 78° (ENE) 832 3.3 -23.4°
Enters shadow 12:10:44 42° 144° (SE) 1,087 4.0 -23.8°
